[[{"header":{"parameterUnit":"m.s-1","parameterCategory":1,"la1":30.2991,"la2":30.254,"lo1":-89.0895,"lo2":-89.0444,"dy":0.0017,"dx":0.0017,"nx":28,"ny":28,"refTime":"2024-05-25T21:00:00:Z","depth":0,"parameterNumber":2,"parameterNumberName":"U-component_of_WINDS"},"data":[0,0,0,0,0,0,0,0,0,0,0,0,0,0,0,0,0,0,0,0,0,0,0,0,0,0,0,0,0,0,0,0,0,0,0,0,0,0,0,0,0,0,0,0,0,0,0,0,0,0,0,0,0,0,0,0,0,0,0.9086,0.9087,0,0.9195,0.9196,0.9197,0.9238,0.9238,0.9238,0.9237,0.9351,0.9354,0.9357,0,0,0,0,0,0,0,0,0,0,0,0,0,0.8915,0.8918,0.9086,0.9088,0.9089,0.9194,0.9196,0.9197,0.9238,0.9238,0.9238,0.9237,0.935,0.9353,0.9357,0,0,0,0,0,0,0,0,0,0,0,0,0,0.9003,0.8919,0.9086,0.9122,0.9126,0.9194,0.9196,0.9198,0.9239,0.9238,0.9238,0.9237,0.9348,0.9353,0.9358,0.9399,0,0,0.9373,0.9375,0,0,0,0,0,0,0,0,0.8998,0.901,0.9115,0.912,0.9125,0.9202,0.9177,0.9265,0.9239,0.9196,0.9237,0.9237,0.9302,0.9311,0.9332,0.9404,0.9409,0.9374,0.9377,0.9379,0.938,0,0,0,0,0,0,0,0.8992,0.9005,0.9129,0.9117,0.9122,0.9133,0.9145,0.9194,0.925,0.92,0.9203,0.9215,0.9304,0.9327,0.9335,0.941,0.9374,0.9378,0.9381,0.9383,0.952,0.952,0,0,0,0,0,0,0.898,0.9,0.9126,0.9132,0.9059,0.9137,0.915,0.9178,0.925,0.926,0.9215,0.9217,0.9319,0.9329,0.9339,0.9391,0.9379,0.9383,0.9386,0.9519,0.952,0.9521,0,0,0,0,0,0,0.8976,0.8991,0.9121,0.9067,0.9084,0.914,0.9171,0.918,0.9203,0.9262,0.9272,0.9228,0.9319,0.9332,0.9383,0.9395,0.9386,0.939,0.9518,0.9519,0.952,0.9494,0,0,0,0,0,0,0.8971,0.8989,0.9005,0.9067,0.9087,0.9163,0.9172,0.9183,0.9212,0.9214,0.9277,0.9287,0.932,0.9375,0.9388,0.9402,0.9394,0.9517,0.9519,0.952,0.9494,0.9494,0.9494,0,0,0,0,0,0.8965,0.8994,0.9006,0.9021,0.9108,0.9164,0.9175,0.9212,0.9212,0.9229,0.9266,0.9285,0.9392,0.938,0.9395,0.941,0.9517,0.9518,0.952,0.9494,0.9494,0.9494,0,0,0,0,0,0,0.8933,0.9003,0.9016,0.9067,0.9109,0.917,0.9193,0.9211,0.9254,0.9255,0.9299,0.9313,0.936,0.9391,0.9376,0.9453,0.9456,0.946,0.9431,0.9432,0.9432,0.9423,0.9398,0,0,0,0,0,0.8932,0.8971,0.903,0.9068,0.9089,0.9137,0.9162,0.9187,0.9232,0.9251,0.9292,0.9336,0.9379,0.9407,0.9451,0.9499,0.9513,0.9517,0.9517,0.9516,0.952,0.9546,0.9549,0.9525,0.9525,0.9525,0,0,0.893,0.8973,0.8995,0.9063,0.9099,0.9138,0.9152,0.9193,0.9223,0.9257,0.9307,0.9339,0.9391,0.944,0.9464,0.9467,0.9529,0.9518,0.9517,0.9521,0.9548,0.955,0.9552,0.9526,0.9526,0.9526,0,0,0.8946,0.8983,0.9019,0.9053,0.9107,0.9138,0.9146,0.9205,0.9227,0.9278,0.9304,0.934,0.9415,0.945,0.9478,0.9506,0.9525,0.9519,0.9519,0.9545,0.9546,0.9548,0.9558,0.9561,0.9522,0.9522,0.9522,0,0.8938,0.8998,0.9035,0.9074,0.9103,0.9135,0.9172,0.9204,0.9269,0.9288,0.929,0.9383,0.942,0.9478,0.9484,0.9506,0.9517,0.9512,0.9543,0.9545,0.9547,0.9557,0.9561,0.9521,0.9521,0.9521,0.9521,0,0.8984,0.9025,0.9047,0.9108,0.9139,0.9177,0.922,0.9247,0.9269,0.93,0.935,0.9396,0.9449,0.9464,0.9486,0.9525,0.9525,0.9534,0.9538,0.9548,0.9558,0.9562,0.952,0.952,0.952,0.9521,0,0,0.8984,0.9064,0.9071,0.9099,0.9159,0.9191,0.923,0.9281,0.9303,0.9346,0.938,0.9441,0.945,0.9481,0.9507,0.953,0.9548,0.9537,0.9538,0.9537,0.9593,0.9585,0.9589,0.956,0.9561,0.9562,0.9588,0,0.9009,0.9079,0.9113,0.9168,0.9206,0.9237,0.927,0.9311,0.9341,0.9377,0.9411,0.9453,0.9462,0.9481,0.9504,0.9541,0.956,0.9539,0.9592,0.9593,0.9578,0.9594,0.9586,0.9609,0.9592,0.9593,0.9593,0,0.9047,0.9088,0.9147,0.9202,0.9219,0.9249,0.9297,0.9332,0.9378,0.9398,0.9432,0.9457,0.9499,0.9499,0.9557,0.9542,0.9566,0.9587,0.9588,0.9595,0.9594,0.96,0.9617,0.962,0.96,0.9599,0.9599,0,0.904,0.9111,0.9156,0.9178,0.9243,0.9263,0.9291,0.9337,0.9364,0.9407,0.9425,0.9472,0.9498,0.9533,0.957,0.9567,0.9624,0.9628,0.9642,0.9641,0.9654,0.9652,0.9674,0.9668,0.9668,0.9668,0.9668,0,0.9064,0.9099,0.9153,0.9181,0.922,0.9259,0.9297,0.9328,0.9368,0.9401,0.943,0.9461,0.9508,0.9545,0.9574,0.9617,0.9628,0.9646,0.9653,0.9643,0.9641,0.966,0.9659,0.9669,0.9669,0.9669,0.9669,0,0.9064,0.9102,0.9152,0.9209,0.9224,0.925,0.9299,0.9327,0.9357,0.9399,0.9411,0.946,0.9504,0.9544,0.9604,0.9623,0.9667,0.9676,0.9651,0.9655,0.9667,0.9665,0.9702,0.9708,0.9698,0.9698,0.9698,0,0.9076,0.9104,0.9163,0.9187,0.9214,0.9253,0.9281,0.932,0.9348,0.9401,0.9422,0.9469,0.9508,0.9578,0.9619,0.9664,0.9674,0.9684,0.9682,0.967,0.9674,0.9672,0.9675,0.9684,0.9684,0.9683,0.9683,0,0.9094,0.9111,0.915,0.9195,0.9228,0.9266,0.9304,0.9322,0.9368,0.9398,0.9444,0.9474,0.9534,0.958,0.9629,0.9658,0.9679,0.9684,0.9689,0.968,0.9664,0.9672,0.965,0.9683,0.9683,0.9683,0.9683,0.9683,0.9101,0.9126,0.9171,0.9213,0.9246,0.9281,0.9309,0.9343,0.9381,0.9432,0.9453,0.9499,0.9544,0.9612,0.9641,0.9678,0.9682,0.969,0.9692,0.9694,0.9692,0.9657,0.9687,0.9687,0.9687,0.9687,0.9687,0,0.912,0.915,0.9188,0.9241,0.9274,0.9288,0.9332,0.9358,0.9398,0.9438,0.9475,0.9527,0.9571,0.9615,0.9661,0.9682,0.9692,0.9693,0.9692,0.9698,0.9686,0.9676,0.9684,0.9684,0.9684,0.9684,0.9684,0.9684,0.9133,0.9177,0.9199,0.9258,0.9288,0.9333,0.9356,0.9389,0.942,0.9477,0.9513,0.9541,0.9582,0.9631,0.9672,0.9684,0.9699,0.9697,0.9711,0.9699,0.9699,0.9699,0.969,0.97,0.97,0.9721,0.9721,0.9721]},{"header":{"parameterUnit":"m.s-1","parameterCategory":1,"la1":30.2991,"la2":30.254,"lo1":-89.0895,"lo2":-89.0444,"dy":0.0017,"dx":0.0017,"nx":28,"ny":28,"refTime":"2024-05-25T21:00:00:Z","depth":0,"parameterNumber":3,"parameterNumberName":"V-component_of_WINDS"},"data":[0,0,0,0,0,0,0,0,0,0,0,0,0,0,0,0,0,0,0,0,0,0,0,0,0,0,0,0,0,0,0,0,0,0,0,0,0,0,0,0,0,0,0,0,0,0,0,0,0,0,0,0,0,0,0,0,0,0,4.2223,4.2223,0,4.2257,4.2257,4.2258,4.2257,4.2256,4.2256,4.2255,4.2286,4.2287,4.2288,0,0,0,0,0,0,0,0,0,0,0,0,0,4.2153,4.2155,4.2223,4.2223,4.2224,4.2257,4.2257,4.2258,4.2257,4.2256,4.2255,4.2255,4.2285,4.2287,4.2288,0,0,0,0,0,0,0,0,0,0,0,0,0,4.2185,4.2155,4.2223,4.2227,4.2228,4.2257,4.2257,4.2258,4.2257,4.2256,4.2255,4.2255,4.2285,4.2286,4.2288,4.2313,0,0,4.2294,4.2295,0,0,0,0,0,0,0,0,4.2183,4.2188,4.2226,4.2227,4.2228,4.2252,4.2244,4.2276,4.2257,4.2246,4.2255,4.2254,4.2275,4.2277,4.2285,4.2315,4.2316,4.2294,4.2295,4.2296,4.2297,0,0,0,0,0,0,0,4.2181,4.2186,4.2236,4.2227,4.2228,4.2226,4.223,4.225,4.2263,4.2247,4.2247,4.2251,4.2275,4.2283,4.2286,4.2316,4.2294,4.2296,4.2297,4.2298,4.2368,4.2369,0,0,0,0,0,0,4.2178,4.2184,4.2235,4.2237,4.2204,4.2228,4.2232,4.2245,4.2263,4.2265,4.2251,4.2251,4.228,4.2283,4.2287,4.2317,4.2296,4.2298,4.2299,4.2368,4.2369,4.2369,0,0,0,0,0,0,4.2177,4.2183,4.2234,4.2211,4.2217,4.223,4.2244,4.2246,4.2254,4.2267,4.2269,4.2258,4.228,4.2284,4.2307,4.2318,4.2299,4.23,4.2367,4.2368,4.2369,4.2379,0,0,0,0,0,0,4.2175,4.2183,4.2193,4.2211,4.2218,4.2255,4.2245,4.2247,4.2258,4.2257,4.2273,4.2275,4.228,4.2304,4.2309,4.232,4.2302,4.2366,4.2367,4.2369,4.2377,4.238,4.2382,0,0,0,0,0,4.2173,4.2193,4.2194,4.22,4.2232,4.2255,4.2259,4.2265,4.2259,4.2269,4.2277,4.2275,4.2317,4.2307,4.2312,4.2324,4.2365,4.2367,4.2369,4.2376,4.2379,4.2382,0,0,0,0,0,0,4.2174,4.2196,4.2196,4.2224,4.2238,4.2255,4.2268,4.2268,4.2284,4.2282,4.2288,4.2291,4.2314,4.2321,4.231,4.2349,4.234,4.2343,4.2344,4.2347,4.2349,4.2347,4.2303,0,0,0,0,0,4.2178,4.2197,4.2214,4.2236,4.2244,4.2255,4.2265,4.2269,4.2283,4.2288,4.2298,4.2311,4.2327,4.2337,4.2353,4.2379,4.2382,4.2389,4.2392,4.2394,4.2396,4.241,4.2414,4.2375,4.2375,4.2375,0,0,4.2186,4.22,4.2211,4.2237,4.2249,4.2267,4.226,4.2279,4.2292,4.2291,4.2314,4.2321,4.2336,4.236,4.2372,4.2367,4.2407,4.2396,4.2398,4.2399,4.2412,4.2416,4.2419,4.2376,4.2376,4.2376,0,0,4.2209,4.2222,4.2242,4.2254,4.2272,4.228,4.2285,4.2302,4.2308,4.2331,4.2331,4.2346,4.2373,4.2384,4.2393,4.2421,4.2419,4.2425,4.2438,4.2451,4.2454,4.2457,4.2467,4.247,4.2428,4.2428,4.2428,0,4.2215,4.2244,4.2252,4.2272,4.2283,4.2285,4.2305,4.2316,4.2337,4.2344,4.234,4.2375,4.2385,4.2412,4.2419,4.2426,4.2431,4.2423,4.2454,4.2456,4.2459,4.2468,4.2472,4.2428,4.2428,4.2428,4.2428,0,4.2251,4.2271,4.2285,4.2308,4.2321,4.234,4.235,4.2362,4.2365,4.2372,4.2396,4.2408,4.2426,4.2433,4.2435,4.246,4.2457,4.2453,4.2443,4.2463,4.2472,4.2476,4.2429,4.2429,4.2429,4.2429,0,0,4.2275,4.2303,4.2308,4.2319,4.2339,4.2354,4.2373,4.2393,4.2403,4.2418,4.2433,4.2457,4.2454,4.2464,4.2467,4.2479,4.2501,4.2474,4.2474,4.2478,4.2529,4.2532,4.2536,4.25,4.2501,4.2501,4.2528,0,4.23,4.2337,4.2345,4.2376,4.2394,4.2396,4.2413,4.2427,4.2435,4.245,4.2458,4.2475,4.2469,4.2475,4.2487,4.2496,4.2511,4.2494,4.2514,4.2514,4.251,4.254,4.2543,4.2567,4.2531,4.2532,4.2532,0,4.2334,4.2352,4.2385,4.2404,4.2411,4.2427,4.2445,4.246,4.2476,4.248,4.2493,4.2495,4.2514,4.2504,4.2531,4.2519,4.2527,4.2533,4.2534,4.2535,4.2524,4.2542,4.2575,4.2579,4.2538,4.2537,4.2537,0,4.2348,4.238,4.2404,4.2413,4.2435,4.2446,4.2456,4.2471,4.2482,4.2498,4.2505,4.2522,4.2531,4.2544,4.2551,4.2543,4.2576,4.2567,4.258,4.258,4.2586,4.2585,4.262,4.2592,4.2592,4.2592,4.2592,0,4.2374,4.2394,4.2411,4.2425,4.2448,4.2457,4.2478,4.2487,4.2501,4.2516,4.2519,4.2533,4.2542,4.2557,4.2562,4.2583,4.2587,4.259,4.2591,4.259,4.2589,4.2595,4.2593,4.2593,4.2593,4.2593,4.2593,0,4.2393,4.2405,4.2431,4.2452,4.2457,4.2473,4.2489,4.2503,4.2511,4.2531,4.2536,4.2548,4.2566,4.2575,4.2596,4.26,4.2623,4.2623,4.2619,4.2619,4.2631,4.263,4.2671,4.2676,4.2645,4.2645,4.2646,0,4.2409,4.2425,4.2447,4.2459,4.247,4.2488,4.25,4.2509,4.2521,4.2541,4.2552,4.2571,4.2586,4.2615,4.2625,4.2642,4.2642,4.2655,4.2644,4.2642,4.2642,4.2641,4.2642,4.2657,4.2657,4.2657,4.2657,0,4.2436,4.2442,4.246,4.248,4.2495,4.2511,4.2527,4.2536,4.2547,4.2561,4.258,4.2593,4.2616,4.2634,4.2652,4.266,4.266,4.2661,4.2665,4.2663,4.266,4.2662,4.2624,4.266,4.266,4.2659,4.2659,4.2659,4.2454,4.2468,4.2487,4.2507,4.252,4.2535,4.2549,4.256,4.2577,4.2598,4.2602,4.2623,4.2638,4.2662,4.2671,4.2687,4.2683,4.2689,4.269,4.2691,4.2692,4.2658,4.269,4.269,4.269,4.269,4.269,0,4.2481,4.2493,4.2512,4.2535,4.255,4.2552,4.2569,4.2582,4.2601,4.2615,4.2631,4.2654,4.2672,4.2684,4.2702,4.2712,4.2712,4.2716,4.2715,4.2717,4.2694,4.2689,4.2715,4.2715,4.2715,4.2715,4.2715,4.2715,4.2496,4.2521,4.2529,4.256,4.2571,4.2593,4.2603,4.2617,4.2629,4.2654,4.267,4.2678,4.2692,4.2711,4.2727,4.273,4.2736,4.274,4.2743,4.2721,4.2718,4.2716,4.2711,4.2742,4.2742,4.2765,4.2765,4.2765]}]]